Home   Weather   Guiyang   Past weeks

Flag for China Past Weather in Guiyang, Guizhou, China — Yesterday and Last 2 Weeks

Now
43 °F

More clouds than sun.


Feels Like: 41 °F
Forecast: 42 / 49 °F
Wind: 3 mph from Southwest

Location: Guiyang Airport

Current Time: Jan 17, 2017 at 3:13:34 pm

Latest Report: Jan 17, 2017 at 2:00 pm


Visibility: N/A

Pressure: 30.12 "Hg (26.43 "Hg at 1067m altitude)

Humidity: 76%

Dew Point: 36 °F

Location of GuiyangLocation

Past Weather in Guiyang — Graph

°F

Guiyang Temperature Yesterday

Maximum temperature yesterday: 39 °F (at 12:00 am)
Minimum temperature yesterday: 36 °F (at 11:00 pm)
Average temperature yesterday: 38 °F

High & Low Weather Summary for the Past Weeks

 TemperatureHumidityPressure
High72 °F (Jan 6, 3:00 pm)100% (Jan 3, 3:00 am)30.30 "Hg (Jan 3, 3:00 am)
Low36 °F (Jan 11, 2:00 am)50% (Jan 6, 3:00 pm)29.86 "Hg (Jan 6, 3:00 pm)
Average45 °F90%30.10 "Hg
* Reported Jan 2 1:00 pm — Jan 17 1:00 pm, Guiyang, Weather by CustomWeather, © 2017

Note: Actual official high and low records may vary slightly from our data, if they occured in-between our weather recording intervals... More about our weather records

Advertising

Guiyang Weather History for the Previous 24 Hours

Scroll right to see more
 ConditionsComfort  
Time TempWeatherWind HumidityBarometerVisibility
1:00 pm
Tue, Jan 17
41 °FMore clouds than sun.1 mph81%30.18 "HgN/A
12:00 pm41 °FBroken clouds.1 mph81%30.21 "HgN/A
11:00 am39 °FBroken clouds.1 mph87%30.24 "HgN/A
10:00 am37 °FBroken clouds.3 mph87%30.27 "HgN/A
9:00 am36 °FBroken clouds.3 mph93%30.24 "HgN/A
8:00 am36 °FMore clouds than sun.3 mph93%30.24 "HgN/A
7:00 am36 °FMostly cloudy.1 mph93%30.24 "HgN/A
6:00 am36 °FMostly cloudy.3 mph93%30.21 "HgN/A
5:00 am36 °FMostly cloudy.3 mph93%30.21 "HgN/A
4:00 am36 °FMostly cloudy.1 mph93%30.24 "HgN/A
3:00 am36 °FDrizzle. Mostly cloudy.3 mph93%30.24 "Hg4 mi
2:00 am36 °FDrizzle. Fog.6 mph100%30.24 "Hg3 mi
1:00 am36 °FDrizzle. Fog.3 mph100%30.24 "Hg3 mi
12:00 am36 °FDrizzle. Fog.6 mph100%30.21 "Hg3 mi
11:00 pm
Mon, Jan 16
36 °FLight rain. Fog.6 mph100%30.21 "Hg2 mi
10:00 pm37 °FLight rain. Fog.8 mph93%30.18 "Hg2 mi
9:00 pm37 °FLight rain. Fog.6 mph100%30.15 "Hg2 mi
8:00 pm37 °FLight rain. Fog.6 mph100%30.12 "Hg2 mi
7:00 pm37 °FLight rain. Fog.8 mph100%30.09 "Hg2 mi
6:00 pm39 °FLight rain. Fog.6 mph100%30.07 "Hg1 mi
5:00 pm39 °FDrizzle. Fog.3 mph100%30.04 "Hg1 mi
4:00 pm39 °FDrizzle. Fog.3 mph100%30.04 "Hg1 mi
3:00 pm39 °FDrizzle. Fog.6 mph93%30.04 "Hg1 mi
Weather by CustomWeather, © 2017

See weather overviewHow to use our weather pages